Munster, IL

12:09 AM CST on February 10, 2016 (GMT -0600)
Lansing Municipal

Weather History for KIGQ - July, 2013

Change the Weather History Date:

Sunday, July 28, 2013

  Actual Average (KMDW) Record (KMDW)
Temperature  
Mean Temperature 60 °F 76 °F  
Max Temperature 70 °F 84 °F 100 °F (1983)
Min Temperature 50 °F 68 °F 53 °F (1981)
Degree Days  
Heating Degree Days 5 0  
Month to date heating degree days 0  
Since 1 June heating degree days 31  
Since 1 July heating degree days 0  
Cooling Degree Days 0 11  
Month to date cooling degree days 306  
Year to date cooling degree days 590  
Since 1 June cooling degree days 516  
Growing Degree Days 10 (Base 50)    
Moisture  
Dew Point 47 °F    
Average Humidity 65    
Maximum Humidity 89    
Minimum Humidity 38    
Precipitation  
Precipitation 0.01 in 0.14 in 1.25 in (1981)
Month to date precipitation 3.58  
Year to date precipitation 22.13  
Sea Level Pressure  
Sea Level Pressure 29.95 in    
Wind  
Wind Speed 9 mph (West)    
Max Wind Speed 17 mph    
Max Gust Speed 23 mph    
Visibility 10 miles    
Events Rain    
T = Trace of Precipitation, MM = Missing Value Source: NWS Daily Summary

Daily Weather History Graph

Daily Weather History Graph

Search for Another Location

Airport or City:

Trip Planner

Search our weather history database for the weather conditions in past years. The results will help you decide how hot, cold, wet, or windy it might be!

Date:

Astronomy

Jul. 28, 2013 Rise Set
Actual Time 5:41 AM CDT 8:11 PM CDT
Civil Twilight 5:09 AM CDT 8:43 PM CDT
Nautical Twilight 4:30 AM CDT 9:22 PM CDT
Astronomical Twilight 3:45 AM CDT 10:06 PM CDT
Moon 11:26 PM CDT (7/28) 12:29 PM CDT (7/28)
Length of Visible Light 15h 33m
Length of Day
14h 30m
Waning Gibbous, 60% of the Moon is Illuminated
Jul 28
Waning Gibbous
Jul 29
Last Quarter
Aug 6
New
Aug 14
First Quarter
Aug 20
Full

Hourly Weather History & Observations

Time (CDT) Temp. Dew Point Humidity Pressure Visibility Wind Dir Wind Speed Gust Speed Precip Events Conditions
12:15 AM 58.6 °F 45.9 °F 63% 29.91 in 10.0 mi WSW 9.2 mph - N/A   Overcast
12:35 AM 59.0 °F 46.2 °F 63% 29.91 in 10.0 mi West 12.7 mph 16.1 mph N/A   Overcast
12:55 AM 57.9 °F 46.2 °F 65% 29.91 in 10.0 mi West 11.5 mph 17.3 mph N/A   Scattered Clouds
1:15 AM 57.4 °F 46.2 °F 66% 29.91 in 10.0 mi West 12.7 mph 18.4 mph N/A   Clear
1:35 AM 55.9 °F 46.4 °F 70% 29.91 in 10.0 mi West 8.1 mph - N/A   Clear
1:55 AM 55.4 °F 46.8 °F 73% 29.91 in 10.0 mi West 8.1 mph - N/A   Clear
2:15 AM 54.9 °F 46.8 °F 74% 29.91 in 10.0 mi West 8.1 mph - N/A   Clear
2:35 AM 54.5 °F 46.6 °F 75% 29.91 in 10.0 mi West 8.1 mph - N/A   Clear
2:55 AM 53.6 °F 46.4 °F 77% 29.91 in 10.0 mi West 8.1 mph - N/A   Clear
3:15 AM 53.1 °F 46.4 °F 78% 29.90 in 10.0 mi West 6.9 mph - N/A   Clear
3:35 AM 51.8 °F 46.0 °F 81% 29.90 in 10.0 mi SW 5.8 mph - N/A   Clear
3:55 AM 50.4 °F 45.7 °F 84% 29.90 in 10.0 mi SW 5.8 mph - N/A   Clear
4:15 AM 50.0 °F 45.5 °F 85% 29.90 in 10.0 mi SW 4.6 mph - N/A   Scattered Clouds
4:35 AM 50.5 °F 45.9 °F 84% 29.90 in 10.0 mi SW 4.6 mph - N/A   Scattered Clouds
4:55 AM 50.9 °F 46.2 °F 84% 29.90 in 10.0 mi SW 6.9 mph - N/A   Mostly Cloudy
5:15 AM 52.0 °F 46.4 °F 81% 29.91 in 10.0 mi WSW 9.2 mph - N/A   Overcast
5:35 AM 52.7 °F 46.6 °F 80% 29.91 in 10.0 mi WSW 10.4 mph - N/A Rain Light Rain
5:55 AM 52.7 °F 47.1 °F 81% 29.92 in 10.0 mi WSW 6.9 mph - N/A   Overcast
6:15 AM 52.7 °F 47.8 °F 84% 29.92 in 10.0 mi WSW 6.9 mph - N/A Rain Light Rain
6:35 AM 53.1 °F 48.2 °F 84% 29.93 in 10.0 mi WSW 6.9 mph - N/A   Overcast
6:55 AM 53.2 °F 48.4 °F 84% 29.93 in 10.0 mi West 9.2 mph - N/A Rain Light Rain
7:15 AM 53.4 °F 49.1 °F 85% 29.93 in 10.0 mi West 6.9 mph - N/A Rain Rain
7:35 AM 53.6 °F 49.6 °F 86% 29.93 in 10.0 mi West 8.1 mph - N/A Rain Light Rain
7:55 AM 53.6 °F 50.4 °F 89% 29.93 in 7.0 mi WSW 8.1 mph - 0.01 in Rain Rain
8:15 AM 53.6 °F 50.5 °F 89% 29.93 in 10.0 mi WSW 8.1 mph - N/A Rain Light Rain
8:35 AM 54.5 °F 51.3 °F 89% 29.94 in 10.0 mi WSW 6.9 mph - N/A   Overcast
8:55 AM 56.3 °F 52.0 °F 85% 29.94 in 10.0 mi West 9.2 mph - N/A   Overcast
9:15 AM 57.4 °F 51.8 °F 82% 29.93 in 10.0 mi West 10.4 mph - N/A   Overcast
9:35 AM 58.8 °F 52.0 °F 78% 29.93 in 10.0 mi West 12.7 mph 16.1 mph N/A   Overcast
9:55 AM 60.1 °F 51.4 °F 73% 29.93 in 10.0 mi WNW 10.4 mph - N/A   Overcast
10:15 AM 61.0 °F 49.8 °F 67% 29.93 in 10.0 mi West 11.5 mph 17.3 mph N/A   Overcast
10:35 AM 60.4 °F 48.2 °F 64% 29.94 in 10.0 mi West 10.4 mph 19.6 mph N/A   Overcast
10:55 AM 61.9 °F 47.8 °F 60% 29.94 in 10.0 mi WNW 10.4 mph 20.7 mph N/A   Overcast
11:15 AM 63.0 °F 48.2 °F 59% 29.94 in 10.0 mi West 10.4 mph 16.1 mph N/A   Overcast
11:35 AM 61.0 °F 47.1 °F 60% 29.94 in 10.0 mi WNW 10.4 mph - N/A   Overcast
11:55 AM 62.2 °F 48.0 °F 60% 29.94 in 10.0 mi WNW 8.1 mph - N/A   Overcast
12:15 PM 63.7 °F 46.8 °F 54% 29.94 in 10.0 mi WNW 9.2 mph 16.1 mph N/A   Overcast
12:35 PM 64.8 °F 46.0 °F 51% 29.94 in 10.0 mi West 15.0 mph 18.4 mph N/A   Overcast
12:55 PM 64.4 °F 45.1 °F 50% 29.95 in 10.0 mi West 17.3 mph - N/A   Overcast
1:15 PM 65.5 °F 44.8 °F 47% 29.95 in 10.0 mi West 12.7 mph - N/A   Mostly Cloudy
1:35 PM 64.6 °F 45.7 °F 50% 29.95 in 10.0 mi West 10.4 mph 16.1 mph N/A   Overcast
1:55 PM 65.5 °F 45.0 °F 47% 29.95 in 10.0 mi WNW 8.1 mph - N/A   Overcast
2:15 PM 66.2 °F 45.3 °F 47% 29.95 in 10.0 mi WNW 10.4 mph - N/A   Mostly Cloudy
2:35 PM 67.1 °F 45.3 °F 45% 29.95 in 10.0 mi West 15.0 mph 19.6 mph N/A   Mostly Cloudy
2:55 PM 69.1 °F 44.6 °F 41% 29.96 in 10.0 mi West 11.5 mph 21.9 mph N/A   Mostly Cloudy
3:15 PM 70.0 °F 43.2 °F 38% 29.96 in 10.0 mi West 13.8 mph 21.9 mph N/A   Mostly Cloudy
3:35 PM 69.8 °F 43.3 °F 38% 29.96 in 10.0 mi WNW 11.5 mph 20.7 mph N/A   Scattered Clouds
3:55 PM 70.5 °F 45.0 °F 40% 29.96 in 10.0 mi West 12.7 mph 23.0 mph N/A   Mostly Cloudy
4:15 PM 70.2 °F 44.2 °F 39% 29.97 in 10.0 mi West 13.8 mph 21.9 mph N/A   Mostly Cloudy
4:35 PM 67.6 °F 44.1 °F 43% 29.97 in 10.0 mi WNW 9.2 mph - N/A   Overcast
4:55 PM 67.5 °F 44.4 °F 43% 29.97 in 10.0 mi West 13.8 mph 18.4 mph N/A   Overcast
5:15 PM 67.1 °F 45.0 °F 45% 29.98 in 10.0 mi WNW 9.2 mph - N/A   Overcast
5:35 PM 66.9 °F 45.1 °F 45% 29.98 in 10.0 mi WNW 6.9 mph - N/A   Mostly Cloudy
5:55 PM 66.7 °F 44.2 °F 44% 29.98 in 10.0 mi WNW 10.4 mph - N/A   Overcast
6:15 PM 67.3 °F 45.1 °F 45% 29.98 in 10.0 mi WNW 8.1 mph - N/A   Overcast
6:35 PM 67.3 °F 44.2 °F 43% 29.99 in 10.0 mi WNW 8.1 mph - N/A   Mostly Cloudy
6:55 PM 67.1 °F 44.4 °F 44% 29.99 in 10.0 mi WNW 6.9 mph - N/A   Scattered Clouds
7:15 PM 66.2 °F 44.2 °F 45% 29.99 in 10.0 mi WNW 5.8 mph - N/A   Clear
7:35 PM 65.5 °F 44.4 °F 46% 30.00 in 10.0 mi West 6.9 mph - N/A   Scattered Clouds
7:55 PM 63.9 °F 44.4 °F 49% 30.00 in 10.0 mi West 4.6 mph - N/A   Clear
8:15 PM 62.1 °F 44.8 °F 53% 30.01 in 10.0 mi WSW 4.6 mph - N/A   Clear
8:35 PM 62.2 °F 44.6 °F 52% 30.00 in 10.0 mi West 4.6 mph - N/A   Clear
8:55 PM 59.0 °F 45.0 °F 60% 30.01 in 10.0 mi Calm Calm - N/A   Clear
9:15 PM 55.9 °F 45.5 °F 68% 30.01 in 10.0 mi Calm Calm - N/A   Clear
9:35 PM 55.2 °F 47.1 °F 74% 30.02 in 10.0 mi SSW 3.5 mph - N/A   Clear
9:55 PM 53.8 °F 46.8 °F 77% 30.02 in 10.0 mi SW 3.5 mph - N/A   Clear
10:15 PM 53.8 °F 45.9 °F 75% 30.03 in 10.0 mi WSW 3.5 mph - N/A   Clear
10:35 PM 55.8 °F 46.2 °F 70% 30.03 in 10.0 mi WSW 3.5 mph - N/A   Clear
10:55 PM 55.4 °F 46.0 °F 71% 30.04 in 10.0 mi WSW 3.5 mph - N/A   Clear
11:15 PM 53.1 °F 45.9 °F 77% 30.04 in 10.0 mi WSW 3.5 mph - N/A   Clear
11:35 PM 54.5 °F 47.7 °F 78% 30.04 in 10.0 mi WSW 4.6 mph - N/A   Mostly Cloudy
11:55 PM 57.4 °F 48.2 °F 71% 30.04 in 10.0 mi WSW 5.8 mph - N/A   Overcast